Вернуться в каталог

METEOR 2-1

АктивенПогодаPO
NORAD 8026·PAYLOAD·🇷🇺 Russia

Запущен Jul 11, 1975 с Plesetsk Cosmodrome

Loading…

Ближайшие Пролёты (ближайшие 24 часа)

TLE

СвежийSource: Space-Track

Эпоха: Sep 14, 2026, 13:22 UTC

1 08026U 75064A   26257.55696465  .00000076  00000-0  35271-4 0  9991
2 08026  81.2779 296.5127 0021478 329.7699  30.2231 14.10825950631940

Отслеживайте METEOR 2-1 в реальном времени с AllMySat

Download on the App Store